| DS18B20 | SHTC3 | ||||||
|---|---|---|---|---|---|---|---|
| ID | Date d/m/Y & Time | data1 สูง | data2 ต่ำ | data3 นอก | temp pcb | hum pcb | Time |
| 2701 | 15/03/2026 12:56:09 | 30.4  | 29.8  | 30.7  | 30.1  | 67.7  | 12:56 |
| 2700 | 15/03/2026 12:51:28 | 30.4  | 29.8  | 30.7  | 29.9  | 67.7  | 12:51 |
| 2699 | 15/03/2026 12:46:48 | 30.3  | 29.7  | 30.5  | 29.9  | 67.7  | 12:46 |
| 2698 | 15/03/2026 12:42:07 | 30.2  | 29.7  | 31.0  | 29.7  | 67.6  | 12:42 |
| 2697 | 15/03/2026 12:37:26 | 30.2  | 29.7  | 30.4  | 29.7  | 67.5  | 12:37 |
| 2696 | 15/03/2026 12:32:45 | 30.2  | 29.6  | 30.2  | 29.8  | 67.6  | 12:32 |
| 2695 | 15/03/2026 12:28:02 | 30.2  | 29.6  | 30.2  | 29.9  | 67.5  | 12:28 |
| 2694 | 15/03/2026 12:23:20 | 30.2  | 29.6  | 30.2  | 29.9  | 67.5  | 12:23 |
| 2693 | 15/03/2026 12:18:37 | 30.2  | 29.6  | 30.7  | 29.8  | 67.5  | 12:18 |
| 2692 | 15/03/2026 12:13:54 | 30.1  | 29.5  | 30.5  | 29.7  | 67.6  | 12:13 |
| 2691 | 15/03/2026 12:09:12 | 30.1  | 29.5  | 30.4  | 29.6  | 67.5  | 12:09 |
| 2690 | 15/03/2026 12:04:30 | 30.1  | 29.5  | 30.5  | 29.7  | 67.5  | 12:04 |
| 2689 | 15/03/2026 11:59:47 | 30.1  | 29.4  | 30.1  | 29.6  | 67.4  | 11:59 |
| 2688 | 15/03/2026 11:55:05 | 30.1  | 29.4  | 30.2  | 29.7  | 67.3  | 11:55 |
| 2687 | 15/03/2026 11:50:23 | 30.1  | 29.4  | 30.2  | 29.7  | 67.3  | 11:50 |
| 2686 | 15/03/2026 11:45:42 | 30.1  | 29.3  | 30.5  | 29.6  | 67.3  | 11:45 |
| 2685 | 15/03/2026 11:41:00 | 30.1  | 29.3  | 30.4  | 29.7  | 67.3  | 11:41 |
| 2684 | 15/03/2026 11:36:19 | 30.1  | 29.2  | 30.4  | 29.6  | 67.1  | 11:36 |
| 2683 | 15/03/2026 11:31:35 | 30.0  | 29.2  | 30.5  | 29.7  | 67.2  | 11:31 |
| 2682 | 15/03/2026 11:26:53 | 29.9  | 29.1  | 31.1  | 29.5  | 67.2  | 11:26 |
| 2681 | 15/03/2026 11:22:11 | 29.8  | 29.1  | 31.2  | 29.4  | 67.4  | 11:22 |
| 2680 | 15/03/2026 11:17:30 | 29.7  | 29.0  | 30.8  | 29.1  | 67.4  | 11:17 |
| 2679 | 15/03/2026 11:12:47 | 29.6  | 28.9  | 30.5  | 29.2  | 67.5  | 11:12 |
| 2678 | 15/03/2026 11:08:06 | 29.6  | 28.9  | 30.3  | 29.2  | 67.5  | 11:08 |